Retour au catalogue

SL-12 DEB

LostHEO
NORAD 43378·DEBRIS·🇷🇺 Russia

Lancé Oct 26, 2007 depuis Baikonur Cosmodrome

Loading…

Prochains Passages (prochaines 24 heures)

TLE

PériméSource: Space-Track

Époque: Jun 2, 2019, 04:07 UTC

1 43378U 07052AE  19153.17179863  .00018432  00000-0  98571-2 0  9990
2 43378  64.2696 100.9025 5764222  18.9933 355.6886  4.33043505 70126

Suivez SL-12 DEB en temps réel avec AllMySat

Download on the App Store